This demonstration page uses our WeatherBlox Daily Observations layout. Learn more.

Left ArrowRight Arrow

Hourly Observations for December 1, 2021

Temp ( °F °C ) Dew Point ( °F °C ) Humidity (%) Winds ( mph kmh ) Pressure ( in mb ) Visibility ( mi km ) Precip ( " mm )
12:56 am 00:56 Mostly Cloudy 43 6.3 33 0.6 67 67 SSE 5 7 29.96 1015 10 16 0.00 0.00
1:56 am 01:56 Mostly Cloudy 42 5.5 33 0.5 71 71 SSE 3 6 29.94 1014 10 16 0.00 0.00
2:56 am 02:56 Cloudy 43 6.1 33 0.6 68 68 SW 3 6 29.95 1014 10 16 0.00 0.00
3:56 am 03:56 Partly Cloudy 41 5 33 0.6 73 73 NW 5 7 29.95 1014 10 16 0.00 0.00
4:56 am 04:56 Clear 41 5.2 33 0.6 72 72 WNW 6 9 29.96 1014 10 16 0.00 0.00
5:56 am 05:56 Clear 40 4.3 33 0.3 75 75 NW 5 7 29.97 1015 10 16 0.00 0.00
6:56 am 06:56 Clear 39 3.9 32 0.2 77 77 NW 5 7 29.98 1015 10 16 0.00 0.00
7:56 am 07:56 Sunny 37 2.7 32 0.1 83 83 Calm 29.99 1016 10 16 0.00 0.00
8:56 am 08:56 Sunny 41 4.8 34 1.1 77 77 Calm 29.99 1016 10 16 0.00 0.00
9:56 am 09:56 Sunny 50 10 36 2 58 58 VRB 5 7 29.97 1015 N/A 0.00 0.00
10:03 am 10:03 Sunny 50 10 36 2 58 58 VRB 5 7 29.96 1015 10 16 0.00 0.00
10:56 am 10:56 Sunny 55 13 36 2 47 47 VRB 3 6 29.95 1014 10 16 0.00 0.00
11:56 am 11:56 Mostly Cloudy 57 14.1 34 1 41 41 WSW 5 7 29.96 1015 10 16 0.00 0.00
12:56 pm 12:56 Mostly Sunny 60 15.8 33 0.4 35 35 WSW 8 13 29.93 1013 10 16 0.00 0.00
1:56 pm 13:56 Mostly Sunny 64 17.9 30 -0.9 28 28 WSW 14 22 29.88 1012 10 16 0.00 0.00
2:56 pm 14:56 Sunny 65 18.4 29 -1.5 26 26 WSW 15 24 29.88 1012 10 16 0.00 0.00
3:56 pm 15:56 undefined 63 17.3 29 -1.4 28 28 SSW 7 11 29.87 1011 10 16 0.00 0.00
4:56 pm 16:56 undefined 60 15.7 29 -1.4 31 31 S 3 6 29.89 1012 10 16 0.00 0.00
5:56 pm 17:56 Clear 55 12.7 30 -1.3 38 38 SW 3 6 29.88 1012 10 16 0.00 0.00
6:56 pm 18:56 Clear 59 15.1 28 -2.4 30 30 W 12 19 29.87 1012 10 16 0.00 0.00
7:56 pm 19:56 Clear 57 13.9 28 -2.1 33 33 W 10 17 29.89 1012 10 16 0.00 0.00
8:56 pm 20:56 Clear 55 12.7 28 -2 36 36 Calm 29.90 1013 10 16 0.00 0.00
9:56 pm 21:56 Clear 51 10.4 28 -2 42 42 Calm 29.88 1012 10 16 0.00 0.00
10:56 pm 22:56 Clear 49 9.3 30 -1.2 48 48 Calm 29.88 1012 10 16 0.00 0.00
11:56 pm 23:56 Clear 48 9.1 30 -1.1 49 49 Calm 29.88 1012 10 16 0.00 0.00

Powered by AerisWeather